Regional Weather Roundup
Issued by NWS

Home | Current Version | Previous Version | Graphics & Text | Print | Product List | Glossary On
Versions: 1 2 3 4 5 6 7 8 9 10 11 12 13 14 15 16 17 18 19 20 21 22 23 24 25 26 27 28 29 30 31 32 33 34 35 36 37 38 39 40 41 42 43 44 45 46 47 48 49 50
000
ASUS43 KIND 100259
RWRIN

WEATHER ROUNDUP FOR INDIANA
NATIONAL WEATHER SERVICE INDIANAPOLIS IN
1100 PM EDT WED JUL 09 2014

NOTE: "FAIR" INDICATES FEW OR NO CLOUDS BELOW 12,000 FEET WITH NO
SIGNIFICANT WEATHER AND/OR OBSTRUCTIONS TO VISIBILITY.

* - STATION DOES NOT REPORT WEATHER SUCH AS PRECIPITATION OR FOG.

+ - STATION NOT QUALITY CONTROLLED BY THE NATIONAL WEATHER SERVICE.
    USE DATA WITH CAUTION...ESPECIALLY DEWPOINT AND RELATIVE
    HUMIDITY OBSERVATIONS.

INZ001>003-010>013-019-020-100400-
NORTHWEST INDIANA

CITY           SKY/WX    TMP DP  RH WIND       PRES   REMARKS
GARY /AIRPORT/ CLEAR     68  61  77 E6        30.05R
RENSSELAER +   PTCLDY    64  61  88 CALM      30.04R
VALPARAISO     CLEAR     63  55  75 N3        30.05R

$$

LMZ046-743>745-100400-
SOUTHERN LAKE MICHIGAN

STATION/POSITION TIME  TEMP WIND        PRES
                       AIR  DIR/SP/G
                 (UTC) (F)  (DEG/KT/KT) (MB)
MICHIGAN CITY    0200   67   10/  8/  9   N/A

$$

INZ004-005-014>016-021>024-100400-
NORTH CENTRAL INDIANA

CITY           SKY/WX    TMP DP  RH WIND       PRES   REMARKS
GOSHEN         CLEAR     64  55  72 N5        30.04R
SOUTH BEND     CLEAR     63  55  75 N6        30.05R

$$

INZ006>009-017-018-025>027-100400-
NORTHEAST INDIANA

CITY           SKY/WX    TMP DP  RH WIND       PRES   REMARKS
ANGOLA *+      CLEAR     61  55  82 CALM      30.04R
FORT WAYNE     MOCLDY    66  57  72 N7        30.03R

$$

INZ028-029-035-036-043>045-051>053-100400-
WEST CENTRAL INDIANA

CITY           SKY/WX    TMP DP  RH WIND       PRES   REMARKS
GREENCASTLE +  CLEAR     61  59  94 CALM      30.04R
LAFAYETTE      CLEAR     63  59  87 CALM      30.02R
TERRE HAUTE    CLEAR     65  60  84 N3        30.02R

$$

INZ030>032-037>040-046>048-054>057-064-065-100400-
CENTRAL INDIANA

CITY           SKY/WX    TMP DP  RH WIND       PRES   REMARKS
INDIANAPOLIS   PTCLDY    69  56  62 NW3       30.02R
-EAGLE CREEK   CLEAR     69  58  67 CALM      30.02R
KOKOMO *+      CLOUDY    70  59  68 N6        30.03R
MT COMFORT *+  CLEAR     63  63 100 CALM      30.04R
SHELBYVILLE    CLEAR     67  57  70 NW3       30.02R

$$

INZ033-034-041-042-049-050-058-059-100400-
EAST CENTRAL INDIANA

CITY           SKY/WX    TMP DP  RH WIND       PRES   REMARKS
MUNCIE         CLEAR     66  58  75 N3        30.03R

$$

INZ060-061-067>069-081>083-085>088-100400-
SOUTHWEST INDIANA

CITY           SKY/WX    TMP DP  RH WIND       PRES   REMARKS
EVANSVILLE     PTCLDY    77  62  59 N3        30.01R
HUNTINGBURG *+ CLEAR     72  63  73 NE3       30.02R

$$

INZ062-063-066-070>080-084-089>092-100400-
SOUTH CENTRAL AND SOUTHEAST INDIANA

CITY           SKY/WX    TMP DP  RH WIND       PRES   REMARKS
BLOOMINGTON    CLEAR     67  60  78 CALM      30.03R

$$




USA.gov is the U.S. government's official web portal to all federal, state and local government web resources and services.